一网星座-0148星 (ONEWEB-0148 )

导读 | 豆包AI

ONEWEB-0148是英国OneWeb“一网”低轨卫星星座的组网卫星,于2021年3月25日发射入轨。该星由空客与OneWeb合资公司量产,重约147.5公斤,配备Ku/Ka波段天线,采用氙气电推进系统,运行于近地轨道。作为全球覆盖通信网络的组成部分,它可为偏远地区提供高速互联网接入,失效后会主动离轨在大气层销毁,降低空间碎片风险。

Basic Information
目录编号:
48059
目录名称:
ONEWEB-0148
国际标识:
2021-025T
轨道中心:
EARTH
卫星名称:
一网星座-0148星
卫星全名:
一网星座-0148星 (ONEWEB-0148 )
卫星状态:
在轨 (已飞行1815 天)
发射日期:
2021-03-25 UTC
国别 :
英国 (GB)
星等 :
--
Orbit Information
数据来源 国际轨道数据 AOE轨道数据
星历时间 2026-03-14T07:25:02+0800
10小时前
查看轨道信息
2026-03-11T13:00:00+0800
3天前
查看轨道信息
半长轴 7587.898km 7587.907km
偏心率 0.000172 0.0001861
轨道倾角 87.903° 87.903°
近地点辐角 59.093° 59.406°
升交点赤经 339.174° 339.724°
平近点角 301.037° 182.590°
近地点 1208.455km 1208.357km
远地点 1211.067km 1211.183km
周期 109.633分钟 109.633分钟
每日圈数 13.134713 13.13469
Detailed Information
平衡模式:
三轴稳定
覆盖范围:
全球
运营商:
一网卫星公司
运营商所在国:
英国
制造商(研发单位):
一网卫星公司
制造商所在国:
英国
使用方式:
暂无
Satellite Introduction
OneWeb卫星网络由648颗重约125公斤的微型卫星组成,运行在1200公里的轨道上。 每颗卫星都能够提供至少每秒8千兆位的吞吐量,以使用其高吞吐量的Ku频段有效载荷为家庭和移动平台提供互联网接入。该卫星仍在工作。
2D Orbit Map
3D Orbit Map
Orbit Altitude Analysis Chart
Orbit Inclination Analysis Chart
Orbit Comprehensive Analysis Chart
View Comprehensive Chart